This demonstration page uses our WeatherBlox Daily Observations layout. Learn more.

Left ArrowRight Arrow

39.95238, -75.16362

Hourly Observations for May 1, 2018

Temp ( °F °C ) Dew Point ( °F °C ) Humidity (%) Winds ( mph kmh ) Pressure ( in mb ) Visibility ( mi km ) Precip ( " mm )
12:54 am 00:54 Clear 47 8.3 38 3.3 71 71 SW 3 6 30.09 1019 10 16 0.00 0.00
1:54 am 01:54 Clear 48 8.9 35 1.7 61 61 SSW 6 9 30.08 1019 10 16 0.00 0.00
2:54 am 02:54 Mostly Clear 46 7.8 36 2.2 68 68 WSW 10 17 30.08 1019 10 16 0.00 0.00
3:54 am 03:54 Clear 45 7.2 37 2.8 74 74 WSW 8 13 30.09 1019 10 16 0.00 0.00
4:54 am 04:54 Clear 45 7.2 38 3.3 77 77 SSW 7 11 30.09 1019 10 16 0.00 0.00
5:54 am 05:54 Clear 45 7.2 37 2.8 74 74 WSW 3 6 30.11 1020 10 16 0.00 0.00
6:54 am 06:54 Sunny 45 7.2 37 2.8 74 74 WSW 5 7 30.13 1020 10 16 0.00 0.00
7:54 am 07:54 Sunny 46 7.8 40 4.4 79 79 SW 6 9 30.14 1021 10 16 0.00 0.00
8:54 am 08:54 Sunny 53 11.7 40 4.4 61 61 W 5 7 30.13 1020 10 16 0.00 0.00
9:54 am 09:54 Sunny 64 17.8 32 0 30 30 W 9 15 30.13 1020 10 16 0.00 0.00
10:54 am 10:54 Sunny 68 20 28 -2.2 22 22 WSW 10 17 30.13 1020 10 16 0.00 0.00
11:54 am 11:54 Sunny 71 21.7 25 -3.9 18 18 W 7 11 30.11 1020 10 16 0.00 0.00
12:54 pm 12:54 Sunny 74 23.3 25 -3.9 16 16 W 10 17 30.09 1019 10 16 0.00 0.00
1:54 pm 13:54 Sunny 75 23.9 29 -1.7 18 18 W 13 20 30.09 1019 10 16 0.00 0.00
2:54 pm 14:54 Sunny 77 25 32 0 19 19 W 15 24 30.08 1019 10 16 0.00 0.00
3:54 pm 15:54 Sunny 78 25.6 32 0 19 19 W 13 20 30.06 1018 10 16 0.00 0.00
4:54 pm 16:54 Sunny 79 26.1 33 0.6 19 19 WSW 14 22 30.06 1018 10 16 0.00 0.00
5:54 pm 17:54 Sunny 79 26.1 33 0.6 19 19 WSW 16 26 30.06 1018 10 16 0.00 0.00
6:54 pm 18:54 Mostly Sunny 77 25 34 1.1 21 21 WSW 16 26 30.06 1018 10 16 0.00 0.00
7:54 pm 19:54 Mostly Sunny 65 18.3 19 -7.2 17 17 W 8 13 29.99 1016 10 16 0.00 0.00
8:54 pm 20:54 Clear 72 22.2 37 2.8 28 28 SSW 12 19 30.09 1019 10 16 0.00 0.00
9:54 pm 21:54 Clear 69 20.6 36 2.2 30 30 SW 10 17 30.10 1019 10 16 0.00 0.00
10:54 pm 22:54 Mostly Cloudy 66 18.9 37 2.8 34 34 SW 10 17 30.10 1019 10 16 0.00 0.00
11:54 pm 23:54 Mostly Cloudy 65 18.3 36 2.2 34 34 SW 10 17 30.10 1019 10 16 0.00 0.00

Powered by AerisWeather